Leonardtown, MD

3:54 PM EST on January 17, 2018 (GMT -0500)
Leonardtown

Weather History for K2W6 - August, 2014

Change the Weather History Date:

Thursday, August 14, 2014

  Actual Average (KNHK) Record (KNHK)
Temperature  
Mean Temperature 68 °F -  
Max Temperature 80 °F 86 °F 97 °F (2016)
Min Temperature 55 °F 69 °F 57 °F (2015)
Cooling Degree Days 2    
Growing Degree Days 18 (Base 50)    
Moisture  
Dew Point 56 °F    
Average Humidity 68    
Maximum Humidity 94    
Minimum Humidity 36    
Precipitation  
Precipitation 0.00 in - - ()
Sea Level Pressure  
Sea Level Pressure 29.93 in    
Wind  
Wind Speed 4 mph (WSW)    
Max Wind Speed 12 mph    
Max Gust Speed 18 mph    
Visibility 9 miles    
Events      
Averages and records for this station are not official NWS values.
T = Trace of Precipitation, MM = Missing Value Source: NWS Daily Summary

Daily Weather History Graph

Daily Weather History Graph

Search for Another Location

Airport or City:

Trip Planner

Search our weather history database for the weather conditions in past years. The results will help you decide how hot, cold, wet, or windy it might be!

Date:

Astronomy

Aug. 14, 2014 Rise Set
Actual Time 6:19 AM EDT 8:01 PM EDT
Civil Twilight 5:51 AM EDT 8:29 PM EDT
Nautical Twilight 5:17 AM EDT 9:03 PM EDT
Astronomical Twilight 4:40 AM EDT 9:39 PM EDT
Moon 10:27 PM EDT (8/14) 10:49 AM EDT (8/14)
Length of Visible Light 14h 37m
Length of Day
13h 41m
Waning Gibbous, 79% of the Moon is Illuminated
Aug 14
Waning Gibbous
Aug 17
Last Quarter
Aug 25
New
Sep 2
First Quarter
Sep 8
Full

Hourly Weather History & Observations

Time (EDT) Temp. Heat Index Dew Point Humidity Pressure Visibility Wind Dir Wind Speed Gust Speed Precip Events Conditions
12:15 AM 66.2 °F - 53.6 °F 64% 29.92 in 10.0 mi West 4.6 mph - N/A   Clear
12:55 AM 62.6 °F - 53.6 °F 72% 29.93 in 10.0 mi West 5.8 mph - N/A   Clear
1:15 AM 64.4 °F - 53.6 °F 68% 29.93 in 10.0 mi West 4.6 mph - N/A   Clear
1:35 AM 64.4 °F - 53.6 °F 68% 29.93 in 10.0 mi West 4.6 mph - N/A   Clear
1:55 AM 62.6 °F - 53.6 °F 72% 29.93 in 10.0 mi West 4.6 mph - N/A   Clear
2:15 AM 62.6 °F - 53.6 °F 72% 29.93 in 10.0 mi West 5.8 mph - N/A   Clear
2:35 AM 62.6 °F - 53.6 °F 72% 29.93 in 10.0 mi West 4.6 mph - N/A   Clear
2:55 AM 60.8 °F - 53.6 °F 77% 29.94 in 10.0 mi West 3.5 mph - N/A   Clear
3:15 AM 60.8 °F - 53.6 °F 77% 29.94 in 10.0 mi West 3.5 mph - N/A   Clear
3:35 AM 60.8 °F - 53.6 °F 77% 29.94 in 10.0 mi West 3.5 mph - N/A   Clear
3:55 AM 60.8 °F - 53.6 °F 77% 29.94 in 10.0 mi WNW 3.5 mph - N/A   Clear
4:15 AM 60.8 °F - 53.6 °F 77% 29.94 in 10.0 mi West 3.5 mph - N/A   Clear
4:35 AM 60.8 °F - 53.6 °F 77% 29.94 in 10.0 mi WNW 3.5 mph - N/A   Clear
4:55 AM 60.8 °F - 53.6 °F 77% 29.94 in 10.0 mi WNW 5.8 mph - N/A   Clear
5:15 AM 60.8 °F - 53.6 °F 77% 29.95 in 10.0 mi West 3.5 mph - N/A   Clear
5:35 AM 57.2 °F - 53.6 °F 88% 29.95 in 10.0 mi West 4.6 mph - N/A   Clear
5:55 AM 55.4 °F - 53.6 °F 94% 29.95 in 10.0 mi West 3.5 mph - N/A   Clear
6:15 AM 55.4 °F - 51.8 °F 88% 29.95 in 10.0 mi West 4.6 mph - N/A   Clear
6:35 AM 59.0 °F - 53.6 °F 82% 29.96 in 10.0 mi West 4.6 mph - N/A   Clear
6:55 AM 59.0 °F - 53.6 °F 82% 29.96 in 10.0 mi WSW 3.5 mph - N/A   Clear
7:15 AM 59.0 °F - 53.6 °F 82% 29.97 in 10.0 mi West 4.6 mph - N/A   Clear
7:35 AM 60.8 °F - 53.6 °F 77% 29.98 in 10.0 mi West 4.6 mph - N/A   Clear
7:55 AM 62.6 °F - 55.4 °F 77% 29.98 in 10.0 mi West 4.6 mph - N/A   Clear
8:16 AM 64.4 °F - 55.4 °F 73% 29.99 in 10.0 mi West 4.6 mph - N/A   Clear
8:36 AM 66.2 °F - 55.4 °F 68% 29.99 in 10.0 mi WNW 4.6 mph - N/A   Clear
8:56 AM 68.0 °F - 55.4 °F 64% 29.99 in 10.0 mi West 3.5 mph - N/A   Clear
9:16 AM 68.0 °F - 53.6 °F 60% 29.99 in 10.0 mi West 4.6 mph - N/A   Clear
9:56 AM 71.6 °F - 50.0 °F 46% 29.99 in 10.0 mi Calm Calm - N/A   Clear
10:16 AM 71.6 °F - 50.0 °F 46% 29.99 in 10.0 mi WSW 3.5 mph - N/A   Clear
10:36 AM 71.6 °F - 50.0 °F 46% 29.99 in 10.0 mi Calm Calm - N/A   Mostly Cloudy
10:56 AM 73.4 °F - 50.0 °F 44% 29.99 in 10.0 mi WSW 5.8 mph - N/A   Mostly Cloudy
11:16 AM 73.4 °F - 51.8 °F 47% 29.99 in 10.0 mi WSW 5.8 mph - N/A   Scattered Clouds
11:36 AM 73.4 °F - 51.8 °F 47% 29.99 in 10.0 mi SW 6.9 mph - N/A   Mostly Cloudy
11:56 AM 75.2 °F - 46.4 °F 36% 29.98 in 10.0 mi South 5.8 mph - N/A   Scattered Clouds
12:16 PM 75.2 °F - 46.4 °F 36% 29.98 in 10.0 mi South 8.1 mph - N/A   Scattered Clouds
12:36 PM 75.2 °F - 50.0 °F 41% 29.97 in 10.0 mi South 8.1 mph - N/A   Scattered Clouds
1:16 PM 77.0 °F - 51.8 °F 41% 29.96 in 10.0 mi South 9.2 mph 17.3 mph N/A   Mostly Cloudy
1:36 PM 75.2 °F - 51.8 °F 44% 29.94 in 7.0 mi SSW 8.1 mph - N/A   Overcast
1:56 PM 78.8 °F - 51.8 °F 39% 29.94 in 10.0 mi SSW 10.4 mph 16.1 mph N/A   Scattered Clouds
2:16 PM 78.8 °F - 53.6 °F 42% 29.93 in 10.0 mi SSW 8.1 mph - N/A   Clear
2:36 PM 78.8 °F - 53.6 °F 42% 29.92 in 10.0 mi SW 11.5 mph 17.3 mph N/A   Mostly Cloudy
2:56 PM 80.6 °F 80.3 °F 53.6 °F 39% 29.92 in 10.0 mi SW 4.6 mph 18.4 mph N/A   Mostly Cloudy
3:16 PM 78.8 °F - 53.6 °F 42% 29.91 in 10.0 mi South 8.1 mph - N/A   Scattered Clouds
3:56 PM 78.8 °F - 53.6 °F 42% 29.90 in 10.0 mi SSW 10.4 mph - N/A   Scattered Clouds
4:16 PM 77.0 °F - 55.4 °F 47% 29.90 in 10.0 mi SW 6.9 mph - N/A   Overcast
4:37 PM 77.0 °F - 55.4 °F 47% 29.89 in 10.0 mi South 3.5 mph - N/A   Overcast
4:57 PM 78.8 °F - 57.2 °F 47% 29.89 in 10.0 mi South 3.5 mph - N/A   Mostly Cloudy
5:17 PM 77.0 °F - 57.2 °F 50% 29.88 in 10.0 mi South 4.6 mph - N/A   Overcast
5:37 PM 77.0 °F - 57.2 °F 50% 29.88 in 10.0 mi South 4.6 mph - N/A   Overcast
5:57 PM 77.0 °F - 59.0 °F 54% 29.88 in 10.0 mi Calm Calm - N/A   Overcast
6:17 PM 77.0 °F - 59.0 °F 54% 29.88 in 10.0 mi SSW 8.1 mph - N/A   Overcast
6:37 PM 77.0 °F - 59.0 °F 54% 29.88 in 10.0 mi Calm Calm - N/A   Overcast
6:57 PM 68.0 °F - 62.6 °F 83% 29.81 in 1.8 mi NNW 4.6 mph - N/A   Overcast
7:17 PM 68.0 °F - 62.6 °F 83% 29.85 in 7.0 mi Calm Calm - N/A   Overcast
7:37 PM 68.0 °F - 64.4 °F 88% 29.87 in 5.0 mi Calm Calm - N/A   Overcast
7:57 PM 68.0 °F - 64.4 °F 88% 29.89 in 10.0 mi South 6.9 mph - N/A   Overcast
8:17 PM 68.0 °F - 62.6 °F 83% 29.81 in 10.0 mi Calm Calm - N/A   Mostly Cloudy
8:37 PM 66.2 °F - 62.6 °F 88% 29.83 in 10.0 mi Calm Calm - N/A   Mostly Cloudy
8:57 PM 66.2 °F - 62.6 °F 88% 29.88 in 10.0 mi Calm Calm - N/A   Mostly Cloudy
9:17 PM 64.4 °F - 62.6 °F 94% 29.92 in 10.0 mi Calm Calm - N/A   Scattered Clouds
9:37 PM 64.4 °F - 62.6 °F 94% 29.93 in 7.0 mi Calm Calm - N/A   Scattered Clouds
9:57 PM 64.4 °F - 62.6 °F 94% 29.93 in 2.5 mi Calm Calm - N/A   Mostly Cloudy
10:17 PM 64.4 °F - 62.6 °F 94% 29.94 in 10.0 mi Calm Calm - N/A   Scattered Clouds
10:37 PM 64.4 °F - 62.6 °F 94% 29.94 in 10.0 mi Calm Calm - N/A   Mostly Cloudy
10:57 PM 62.6 °F - 60.8 °F 94% 29.94 in 7.0 mi Calm Calm - N/A   Scattered Clouds
11:17 PM 62.6 °F - 60.8 °F 94% 29.95 in 7.0 mi Calm Calm - N/A   Scattered Clouds
11:37 PM 62.6 °F - 60.8 °F 94% 29.96 in 7.0 mi Calm Calm - N/A   Mostly Cloudy
11:57 PM 60.8 °F - 59.0 °F 94% 29.96 in 3.0 mi Calm Calm - N/A   Mostly Cloudy